Location: Aufkirchen
(47.9603°N, 11.3653°E)
Time: 00:20:14
(UTC+01:00)

Transit 4A - Visible Passes

Search period start: 26 November 2020 00:00
Search period end: 06 December 2020 00:00
Orbit: 862 x 982 km, 66.8° (Epoch: 25 November)

Date Brightness Start Highest point End Pass type
(mag) Time Alt. Az. Time Alt. Az. Time Alt. Az.
26 Nov 8.1 17:24:38 10° NW 17:31:03 83° WSW 17:37:15 10° SSE visible
26 Nov 10.7 19:12:43 10° WNW 19:16:26 16° WSW 19:20:06 10° SW visible
27 Nov 11.2 06:52:28 10° SE 06:55:17 13° E 06:58:06 10° ENE visible
27 Nov 8.6 17:34:03 10° NW 17:40:19 60° WSW 17:46:23 10° SSE visible
27 Nov 11.1 19:24:16 10° W 19:25:21 10° W 19:26:25 10° WSW visible
28 Nov 10.9 06:59:51 10° SSE 07:04:13 20° ESE 07:08:39 10° ENE visible
28 Nov 9.3 17:43:34 10° NW 17:49:30 43° WSW 17:55:16 10° S visible
29 Nov 10.0 17:53:13 10° NW 17:58:36 30° WSW 18:03:51 10° SSW visible
30 Nov 10.7 18:03:07 10° WNW 18:07:38 21° WSW 18:12:04 10° SSW visible
01 Dec 11.2 18:13:31 10° WNW 18:16:35 14° W 18:19:37 10° SW visible
02 Dec 11.1 05:51:55 10° SE 05:55:26 15° ESE 05:58:58 10° ENE visible
03 Dec 10.6 05:59:39 10° SSE 06:04:24 23° ESE 06:09:13 10° ENE visible
04 Dec 9.9 06:07:57 10° S 06:13:27 32° ESE 06:19:02 10° NE visible
04 Dec 10.5 16:53:41 10° NW 16:58:48 26° WSW 17:03:46 10° SSW visible
05 Dec 9.2 06:16:37 10° S 06:22:35 45° ESE 06:28:40 10° NE visible
05 Dec 10.9 17:03:43 10° WNW 17:07:48 18° WSW 17:11:48 10° SW visible
